Regional Weather Roundup
Issued by NWS

Home | Current Version | Previous Version | Text Only | Print | Product List | Glossary On
Versions: 1 2 3 4 5 6 7 8 9 10 11 12 13 14 15 16 17 18 19 20 21 22 23 24 25 26 27 28 29 30 31 32 33 34 35 36 37 38 39 40 41 42 43 44 45 46 47 48 49 50
000
ASUS43 KMPX 042101
RWRMN
WEATHER ROUNDUP FOR MINNESOTA
NATIONAL WEATHER SERVICE TWIN CITIES/CHANHASSEN MN
400 PM CDT SAT JUL 04 2015


NOTE: "FAIR" INDICATES FEW OR NO CLOUDS BELOW 12,000 FEET WITH NO
SIGNIFICANT WEATHER AND/OR OBSTRUCTIONS TO VISIBILITY. N/A MEANS
CURRENT SKY AND/OR WEATHER CONDITIONS ARE NOT AVAILABLE.

MNZ060>063-068>070-042200-
   Twin Cities Metro

CITY           SKY/WX    TMP DP  RH WIND       PRES   REMARKS
TWIN CITIES    PTSUNNY   85  62  46 S9        29.92F HAZE
ST PAUL        CLOUDY    83  67  58 SE9       29.92F HAZE
CRYSTAL        SUNNY     86  63  45 VRB5      29.90F HAZE
BLAINE         MOSUNNY   86  63  45 S8        29.92F
LAKEVILLE      MOSUNNY   81  66  61 CALM      29.94S HAZE
EDEN PRAIRIE   SUNNY     81  66  60 SW9       29.91F HAZE
SOUTH ST PAUL  SUNNY     83  63  49 S8        29.92F HAZE
LAKE ELMO      FAIR      81  64  57 S7        29.94S
$$
MNZ001>005-007-008-013>017-022>024-027-028-042200-
   Northwest Minnesota

CITY           SKY/WX    TMP DP  RH WIND       PRES   REMARKS
BEMIDJI        SUNNY     81  61  50 S12G20    29.87F HAZE
HALLOCK        SUNNY     82  70  65 S15G24    29.75F HAZE
ROSEAU         SUNNY     82  66  57 S15G22    29.80F HAZE
WARROAD        SUNNY     82  66  57 S10G17    29.81F HAZE
THIEF RVR FALL MOSUNNY   82  66  57 S15       29.82S
CROOKSTON      SUNNY     82  66  57 S17       29.80F HAZE
FOSSTON        SUNNY     81  64  57 S10G16    29.85F HAZE
DETROIT LAKES  SUNNY     81  64  57 S14       29.88S HAZE
MOORHEAD       SUNNY     82  66  57 S14       29.83S
PARK RAPIDS    CLOUDY    84  61  45 S14       29.88F HAZE
MAHNOMEN       MOCLDY    80  66  61 S10G17    29.85F HAZE
$$
MNZ006-009>011-018-025>026-042200-
   North Central Minnesota

CITY           SKY/WX    TMP DP  RH WIND       PRES   REMARKS
BAUDETTE       SUNNY     80  59  48 S15       29.84S HAZE
FLAG ISLAND    SUNNY     75  68  78 S3        29.81S
INTL FALLS     SUNNY     81  58  45 SW10      29.87F
WASKISH        SUNNY     81  63  54 S7        29.86F
BIG FORK       SUNNY     81  59  47 S8        29.90F
LONGVILLE      SUNNY     81  63  54 SE13      29.90F HAZE
GRAND RAPIDS   SUNNY     81  57  44 S8        29.91F
CRANE LAKE     SUNNY     79  54  41 S6        29.91F
ORR            SUNNY     81  50  34 S3        29.88S
COOK           SUNNY     81  55  41 SE7       29.91F
WALKER         FAIR      80  61  53 SE7       29.89F HAZE
$$
MNZ012-019>021-037-042200-
   Northeast Minnesota

CITY           SKY/WX    TMP DP  RH WIND       PRES   REMARKS
DULUTH         SUNNY     73  60  63 SE10      29.95S
ELY            MOSUNNY   79  54  41 SW12      29.92F
HIBBING        SUNNY     81  57  43 SE12      29.91F
DULUTH HARBOR  SUNNY     66  61  82 NE10      29.95F
TWO HARBORS    SUNNY     79  64  61 E8        29.94S
SILVER BAY     SUNNY     73  57  56 NE8       29.95S
GRAND MARAIS     N/A     63  55  75 E5        29.97S
G MARAIS ARPRT MOSUNNY   68  52  56 SE6       30.01R
$$
MNZ029>031-032-039>041-046>048-054>057-064-042200-
   West Central Minnesota

CITY           SKY/WX    TMP DP  RH WIND       PRES   REMARKS
FERGUS FALLS   SUNNY     82  66  57 S14       29.85F
WHEATON        SUNNY     81  63  54 S12G18    29.86F
MORRIS         SUNNY     84  64  51 S14G20    29.87S
ALEXANDRIA     MOSUNNY   82  65  56 S12       29.91F
ELBOW LAKE     FAIR      82  65  58 S15       29.87F
WADENA         SUNNY     82  64  54 S10       29.88F HAZE
GLENWOOD       MOSUNNY   82  66  57 S10       29.91F
APPLETON       MOSUNNY   88  59  37 S14       29.87S
BENSON         MOSUNNY   82  63  51 S10G16    29.88F
ORTONVILLE     MOSUNNY   84  64  51 SE8G16    29.86F
MADISON        MOSUNNY   82  63  51 S9        29.87F
WILLMAR          N/A     84  66  54 SW7       29.92S
$$
MNZ033>034-036-042>043-049>051-058-059-042200-
   Central Minnesota

CITY           SKY/WX    TMP DP  RH WIND       PRES   REMARKS
ST CLOUD       MOSUNNY   85  64  49 S9        29.90F HAZE
SAUK CENTRE    CLOUDY    80  68  65 S9        29.91S
PAYNESVILLE    MOSUNNY   81  65  58 SE9       29.91F
AITKIN         SUNNY     82  64  54 S10       29.90F HAZE
PINE RIVER       N/A     82  64  54 S10       29.93F HAZE
BRAINERD       CLOUDY    83  61  47 S9        29.91F HAZE
STAPLES        SUNNY     82  61  47 S12G17    29.89F HAZE
LONG PRAIRIE   FAIR      81  66  61 SE9       29.91F
LITTLE FALLS   SUNNY     84  57  39 S9        29.91S HAZE
LITCHFIELD     SUNNY     84  70  61 S6        29.91F
BUFFALO        PTSUNNY   83  66  55 S8        29.92F
MAPLE LAKE     MOSUNNY   83  71  67 S6        29.92F
$$
MNZ037-044-045-052-053-042200-
   East Central Minnesota

CITY           SKY/WX    TMP DP  RH WIND       PRES   REMARKS
PRINCETON      SUNNY     84  63  48 S6        29.91F
MORA           SUNNY     79  61  53 S9        29.94S HAZE
CAMBRIDGE      SUNNY     84  66  54 SE5       29.90F HAZE
RUSH CITY      SUNNY     82  62  51 S6        29.92F
MOOSE LAKE     MOSUNNY   81  59  47 S5        29.91S
HINCKLEY       FAIR      82  61  47 S7        29.93S
CLOQUET        SUNNY     77  57  50 E9        29.94S
MCGREGOR       PTSUNNY   81  59  47 S10       29.92S
$$
MNZ071>073-080-081-089-090-097-098-042200-
   Southwest Minnesota

CITY           SKY/WX    TMP DP  RH WIND       PRES   REMARKS
MONTEVIDEO     MOSUNNY   84  64  51 SW10G18   29.90S
GRANITE FALLS  MOSUNNY   82  65  56 S8        29.91F
CANBY          MOSUNNY   83  62  50 S12       29.89F
MARSHALL       SUNNY     82  61  47 S15         N/A
REDWOOD FALLS  MOSUNNY   85  64  49 S13       29.90F
OLIVIA         MOSUNNY   81  61  50 S9        29.91S
PIPESTONE      MOSUNNY   81  61  50 S13       29.93F
WINDOM         MOSUNNY   82  63  51 S9        29.94F
WORTHINGTON    MOSUNNY   79  61  53 S16       29.95S
JACKSON        MOSUNNY   81  61  50 S8        29.96F
TRACY          SUNNY     82  64  54 S8        29.92S
SLAYTON        MOSUNNY   80  59  48 S9G17     29.94F HAZE
$$
MNZ065>067-074>077-082>085-091>093-042200-
   South Central Minnesota

CITY           SKY/WX    TMP DP  RH WIND       PRES   REMARKS
MANKATO        MOSUNNY   81  63  54 S13       29.94S
NEW ULM        SUNNY     81  63  54 S8        29.93S
ST JAMES       SUNNY     82  64  54 S8        29.94F
FAIRMONT       MOSUNNY   81  59  47 S7        29.95F
GLENCOE        SUNNY     84  69  59 S6        29.92S
FARIBAULT      SUNNY     82  66  57 S8        29.95F HAZE
OWATONNA       SUNNY     82  61  47 SW10      29.96S
WASECA         MOSUNNY   79  63  57 S8        29.97S
ALBERT LEA     SUNNY     81  61  50 SW5       29.97F
$$
MNZ078>079-086>088-094>096-042200-
   Southeast Minnesota

CITY           SKY/WX    TMP DP  RH WIND       PRES   REMARKS
ROCHESTER      MOSUNNY   81  64  56 SW12      29.97F
RED WING       MOSUNNY   84  64  51 S6        29.92F HAZE
DODGE CENTER   MOSUNNY   81  64  57 S9        29.97F
WINONA         SUNNY     81  63  54 SW5       29.95F
AUSTIN         MOSUNNY   82  61  47 SW7       29.98S
PRESTON        MOSUNNY   79  63  58 SW7       29.99S
$$
ABBREVIATIONS USED IN REMARKS
   TC - TEMPERATURES IN CELSIUS
  WCI - WIND CHILL INDEX
   HX - HEAT INDEX
  VSB - VISIBILITY
$$



USA.gov is the U.S. government's official web portal to all federal, state and local government web resources and services.